SCP
0 0 -0 -0 -0 -0 -0 -0 -0 -0 -0 -0 -0 -0 -0 -0 -0 -0 0 0 0 0 0 -0 -0 -0 -0 -0 -0 -0 -0 -0 -0 -0 -0 -0 -0 -0 -0 -0 -0 0 0
0 0 -0 -0 -0 -0 -0 -0 -0 -0 -0 -0 -0 -0 -0 -0 -0 -0 -0 0 0 0 0 -0 -0 -0 -0 -0 -0 -0 -0 0 0 -0 -0 0 -0 -0 -0 -0 -0 0 0
-0 0 0 -0 -0 -0 -0 -0 -0 -0 -0 -0 -0 -0 -0 -0 -0 -0 0 0 0 -0 -0 -0 -0 -0 -0 -0 -0 -0 -0 -0 0 -0 0 0 0 -0 -0 0 0 0 0
-0 -0 0 0 -0 -0 -0 -0 -0 -0 -0 -0 -0 -0 -0 -0 -0 -0 -0 -0 0 0 -0 -0 0 -0 -0 -0 -0 -0 -0 -0 0 -0 -0 0 0 0 0 0 0 0 0
-0 -0 0 0 -0 -0 -0 -0 -0 -0 -0 -0 -0 -0 -0 -0 -0 -0 -0 -0 0 0 -0 -0 0 0 0 0 -0 -0 -0 -0 -0 0 0 -0 -0 0 0 0 0 0 0
-0 -0 -0 -0 -0 -0 0 0 -0 -0 -0 -0 -0 -0 -0 -0 -0 -0 -0 -0 0 0 0 -0 0 0 0 0 0 0 -0 -0 -0 0 0 0 0 0 0 0 0 0 0
-0 -0 -0 -0 -0 -0 0 -0 -0 -0 -0 -0 -0 -0 -0 -0 -0 -0 -0 -0 -0 0 0 0 0 0 0 0 -0 0 0 0 0 0 0 0 0 0 0 0 0 0 0
0 0 -0 -0 -0 0 0 0 0 0 -0 -0 -0 -0 -0 -0 -0 -0 -0 -0 -0 0 0 0 0 0 0 0 0 -0 -0 0 0 0 0 0 0 0 0 0 0 0 0
0 0 0 0 0 0 0 0 0 0 0 0 -0 -0 -0 -0 -0 -0 -0 -0 0 0 0 0 0 0 0 0 0 0 0 0 0 0 0 0 0 0 0 0 0 0 0
0 0 0 0 0 0 0 0 0 0 0 0 0 0 -0 -0 -0 -0 -0 -0 0 0 0 0 0 0 0 0 0 0 -0 -0 0 0 0 0 0 0 0 0 0 0 0
0 0 0 0 0 0 0 0 0 0 0 0 0 0 0 0 0 0 -0 -0 -0 -0 0 0 0 0 0 0 0 0 0 0 0 0 0 0 0 0 0 0 0 0 0
0 0 0 0 0 0 0 0 0 0 0 0 0 0 0 0 0 0 0 0 0 0 0 0 0 0 0 0 0 0 0 0 0 0 0 0 0 0 0 0 0 0 0
0 0 0 0 0 0 0 0 0 0 0 0 0 0 0 0 0 0 0 0 0 0 0 0 0 0 0 0 0 0 0 0 0 0 0 0 0 0 0 0 0 0 0
0 0 0 0 0 0 0 0 0 0 0 0 0 0 0 0 0 0 0 0 0 0 0 0 0 0 0 0 0 0 0 0 0 0 0 0 0 0 0 0 0 0 0
0 0 0 0 0 0 0 0 0 0 0 0 0 0 0 0 0 0 0 0 0 0 0 0 0 0 0 0 0 0 0 0 0 0 0 0 0 0 0 0 0 0 0
0 0 0 0 0 0 0 0 0 0 0 0 0 0 0 0 0 0 0 0 0 0 0 0 0 0 0 0 0 0 0 0 0 0 0 0 0 0 0 0 0 0 0
0 0 0 0 0 0 0 0 0 0 0 0 0 0 0 0 0 0 0 0 0 0 0 0 0 0 0 0 0 0 0 0 0 0 0 0 0 0 0 0 0 0 0
0 0 0 0 0 0 0 0 0 0 0 0 0 0 0 0 0 0 0 0 0 0 0 0 0 0 0 0 0 0 0 0 0 0 0 0 0 0 0 0 0 0 0
0 0 0 0 0 0 0 0 0 0 0 0 0 0 0 0 0 0 0 0 0 0 0 0 0 0 0 0 0 0 0 0 0 0 0 0 0 0 0 0 0 0 0
0 0 0 0 0 0 0 0 0 0 0 0 0 0 0 0 0 0 0 0 0 0 0 0 0 0 0 0 0 0 0 0 0 0 0 0 0 0 0 0 0 0 0
0 0 0 0 0 0 0 0 0 0 0 0 0 0 0 0 0 0 0 0 0 0 0 0 0 0 0 0 0 0 0 0 0 0 0 0 0 0 0 0 0 0 0
0 0 0 0 0 0 0 0 0 0 0 0 0 0 0 0 0 0 0 0 0 0 0 0 0 0 0 0 0 0 0 0 0 0 0 0 0 0 0 0 0 0 0
0 0 0 0 0 0 0 0 0 0 0 0 0 0 0 0 0 0 0 0 0 0 0 0 0 0 0 0 0 0 0 0 0 0 0 0 0 0 0 0 0 0 0
0 0 0 0 0 0 0 0 0 0 0 0 0 0 0 0 0 0 0 0 0 0 0 0 0 0 0 0 0 0 0 0 0 0 0 0 0 0 0 0 0 0 0
0 0 0 0 0 0 0 0 0 0 0 0 0 0 0 0 0 0 0 0 0 0 0 0 0 0 0 0 0 0 0 0 0 0 0 0 0 0 0 0 0 0 0
0 0 0 0 0 0 0 0 0 0 0 0 0 0 0 0 0 0 0 0 0 0 0 0 0 0 0 0 0 0 0 0 0 0 0 0 0 0 0 0 0 0 0
Wind_Speed_500mb
30 28 29 31 30 29 30 31 29 28 33 28 29 28 27 27 27 22 16 13 11 10 15 22 26 26 26 29 32 26 29 28 26 25 24 21 24 23 24 22 19 19 16
27 36 33 32 29 27 27 29 29 29 29 24 22 20 18 18 18 13 11 12 16 22 22 22 24 25 27 30 33 31 27 22 21 26 27 22 21 21 20 21 19 17 15
35 38 36 33 29 26 25 25 27 27 24 21 18 17 14 11 11 12 18 25 21 17 16 21 23 28 29 31 32 29 23 19 20 23 24 21 18 13 13 14 17 18 19
36 40 39 36 32 27 27 23 25 24 23 20 19 17 14 12 14 19 24 19 28 20 9 16 23 27 29 30 28 24 20 14 16 20 19 14 10 10 7 9 12 16 18
39 42 42 40 34 29 26 24 24 25 24 22 19 16 12 12 16 24 24 19 24 29 13 10 20 23 25 26 24 20 16 16 11 10 12 11 6 3 6 7 10 12 14
43 42 41 40 34 27 23 23 24 23 25 25 24 22 19 15 18 22 19 14 18 29 20 9 20 19 19 19 18 15 10 8 10 12 10 11 9 5 3 4 7 10 10
44 42 41 38 31 26 22 20 20 21 22 22 22 23 23 23 15 17 18 16 13 19 18 14 17 17 15 13 11 9 5 3 5 5 6 9 6 3 4 7 7 9 10
42 43 41 40 33 28 24 23 24 24 24 21 22 20 25 22 18 17 20 19 12 9 8 5 9 11 12 11 9 7 5 4 3 3 5 6 6 5 5 10 12 11 9
34 36 42 45 37 31 27 25 25 23 23 18 14 18 21 20 19 19 21 22 21 17 14 15 13 16 15 13 11 11 9 7 6 8 6 5 7 8 9 11 12 12 11
33 31 39 44 40 33 29 26 24 24 24 21 18 16 18 19 20 21 21 23 24 21 17 12 13 12 11 10 9 8 8 10 11 13 12 11 9 12 13 13 15 14 14
38 34 39 45 42 36 32 29 27 25 24 23 23 21 21 20 21 20 20 21 20 17 14 12 11 13 14 13 13 13 14 15 16 17 18 17 15 16 19 19 18 19 18
46 39 33 47 44 40 37 35 32 30 27 25 24 25 23 23 21 20 21 22 20 18 17 17 17 17 17 17 18 19 18 19 20 21 21 21 21 21 23 24 24 24 23
44 39 35 44 44 44 43 39 37 34 31 29 28 26 25 26 27 27 24 24 24 22 22 21 21 21 21 22 22 23 23 23 23 23 23 25 26 26 27 28 29 30 29
46 42 37 37 42 41 36 40 39 40 38 36 33 32 31 30 31 31 29 25 23 23 24 26 27 27 27 26 25 26 26 26 27 27 28 30 31 32 33 33 34 34 35
48 46 42 40 42 40 44 42 40 38 41 39 39 37 37 35 33 32 30 30 28 29 31 30 31 31 31 31 31 31 31 31 32 33 34 36 37 39 38 39 40 40 39
48 47 43 43 43 46 43 41 39 41 39 38 41 41 40 39 37 36 36 34 33 33 32 33 34 36 37 38 38 37 36 36 37 39 41 42 43 44 45 45 44 45 45
48 44 44 43 42 46 47 44 40 39 39 39 39 37 40 41 40 39 40 40 38 37 37 38 37 39 41 40 43 41 41 41 43 45 46 47 46 46 47 47 48 49 50
51 47 41 42 45 43 43 45 44 43 43 41 40 40 39 38 38 38 40 42 40 42 42 42 41 43 46 45 46 47 48 49 49 49 50 49 50 49 47 47 47 49 51
47 46 47 45 45 43 42 42 45 48 45 42 43 43 41 41 41 43 44 43 40 43 45 45 44 46 47 46 48 49 50 53 54 54 55 54 53 52 51 50 49 51 53
49 49 50 50 49 46 44 43 44 46 46 46 46 46 44 46 44 48 49 46 44 48 50 50 50 48 51 49 49 54 54 56 56 58 58 57 55 52 52 53 52 48 49
63 60 57 55 55 53 54 52 52 53 53 53 54 52 49 47 49 51 51 49 49 53 54 54 54 54 56 53 54 59 62 59 58 55 51 48 43 41 39 39 40 41 42
75 70 65 62 55 56 58 56 57 55 55 55 54 54 53 51 46 46 49 49 49 53 59 58 60 62 62 61 55 56 57 60 63 50 34 41 35 37 37 39 42 45 46
84 81 72 65 60 59 61 61 63 64 64 61 60 58 55 53 50 48 47 47 48 50 53 57 61 59 62 63 60 53 25 22 46 53 55 58 63 58 57 49 45 51 54
67 81 73 68 61 61 63 66 67 71 72 68 63 59 54 52 52 49 48 47 49 50 50 50 53 63 59 63 62 65 68 66 55 52 59 63 73 77 69 62 62 64 62
44 56 60 57 57 58 63 67 66 65 67 67 63 60 56 54 53 51 51 51 50 51 49 49 49 51 63 67 66 65 70 71 71 74 67 64 70 75 74 69 64 64 64
58 54 46 49 58 60 57 57 61 63 58 56 54 57 58 57 56 57 56 55 54 55 53 51 51 48 52 60 62 68 71 68 64 67 70 65 68 73 70 68 68 70 69
Wind_Direction_500mb
183 172 164 159 152 145 144 143 139 137 137 127 124 121 124 127 129 130 135 144 157 146 113 99 99 111 108 113 112 104 89 80 78 80 82 96 88 84 88 87 84 75 66
174 168 166 159 153 147 146 149 145 139 144 140 135 133 129 129 128 123 114 121 133 112 105 104 102 105 114 114 112 101 89 81 83 81 85 88 91 83 76 68 63 57 45
171 167 164 159 152 148 150 152 154 153 152 152 148 147 147 142 133 118 107 102 96 101 95 108 107 109 115 120 118 109 94 80 83 82 86 90 82 84 68 57 46 44 40
173 166 165 161 157 155 154 156 165 168 166 164 156 157 161 162 157 136 124 152 127 115 99 109 114 109 118 123 121 111 104 98 79 83 72 98 98 62 50 32 30 35 34
176 171 169 167 166 165 165 165 169 180 185 186 185 184 176 175 176 162 157 148 140 122 138 135 125 118 121 130 132 128 121 120 99 89 69 86 94 169 35 27 19 18 24
173 175 174 173 171 172 173 177 173 178 188 200 205 208 202 209 189 183 169 153 147 136 143 183 131 130 130 132 139 139 124 106 98 87 63 63 68 90 19 356 5 14 13
174 175 178 179 175 175 178 181 184 183 174 174 189 207 206 207 204 186 162 175 190 168 173 144 139 137 135 132 133 147 128 88 25 43 56 37 64 127 289 322 343 338 339
174 174 179 182 182 181 183 184 187 187 179 175 165 181 197 203 199 186 177 182 203 189 169 128 121 140 142 153 160 165 193 194 240 320 25 33 18 13 316 306 307 305 302
180 180 183 186 186 187 187 186 189 194 193 196 189 177 188 187 190 183 181 188 192 201 203 182 180 178 178 179 185 193 206 243 267 292 330 337 332 340 335 320 313 304 291
189 194 194 192 193 193 194 194 195 198 200 205 211 208 201 194 193 197 194 194 202 210 215 203 205 212 219 220 229 240 245 258 276 288 306 309 307 318 321 315 310 305 292
201 205 203 200 199 200 201 202 202 203 206 209 215 219 221 217 211 210 212 213 213 220 227 240 235 233 236 239 244 251 256 261 264 271 286 293 300 304 305 304 302 299 293
205 204 208 206 205 205 208 208 208 208 210 214 219 223 226 224 223 226 229 229 227 228 228 230 239 245 246 250 253 259 264 263 268 268 276 283 289 291 292 293 295 292 290
212 214 219 209 208 212 213 215 215 215 216 218 223 228 230 231 229 230 234 236 232 233 240 245 252 256 257 258 260 265 267 266 268 271 274 279 283 284 285 287 289 288 287
218 223 223 218 214 214 220 218 219 221 220 222 226 229 232 234 237 238 240 237 240 249 255 257 255 258 259 263 266 268 270 271 273 275 277 279 281 281 280 281 282 283 282
222 224 226 228 228 225 218 221 222 225 224 227 229 231 233 235 239 242 247 248 254 263 265 264 263 262 267 268 270 273 274 277 279 282 282 282 282 280 279 278 279 279 279
221 225 226 229 234 232 232 235 232 229 230 228 227 231 232 234 239 245 249 252 257 263 267 266 266 267 270 270 272 275 278 280 284 284 282 281 279 279 279 277 274 274 275
218 224 228 232 233 232 235 238 240 246 237 237 238 236 235 235 236 243 251 256 258 260 262 263 266 270 273 278 279 281 283 286 284 284 283 282 281 279 278 278 276 273 272
220 221 225 230 231 234 235 238 241 245 249 244 245 245 247 247 244 243 249 254 257 259 262 264 269 273 275 277 280 282 283 284 285 285 283 282 282 282 280 278 278 277 275
224 225 229 232 232 233 235 238 241 245 250 255 253 253 253 253 252 251 253 257 259 261 263 266 268 270 274 277 281 283 283 283 284 284 282 282 283 283 283 283 280 279 278
231 232 234 236 238 237 240 240 241 243 247 253 256 259 260 259 255 253 258 262 260 262 264 266 269 273 277 280 283 285 285 284 283 282 283 287 288 286 285 287 288 283 279
229 231 232 235 238 239 238 241 242 245 251 258 259 257 259 264 261 253 254 257 259 260 263 266 269 271 273 276 283 284 287 287 288 289 296 295 292 293 289 285 287 289 288
231 233 233 235 241 242 244 247 251 259 262 268 264 261 259 261 267 267 255 257 258 261 262 263 262 266 268 269 269 278 285 291 296 299 299 300 291 292 287 289 285 287 285
232 232 232 237 241 243 247 248 249 252 257 258 255 257 255 257 259 264 270 268 268 265 268 265 263 263 267 273 273 266 271 262 288 288 292 291 291 291 287 292 286 289 284
234 228 233 237 242 247 248 245 250 253 257 260 265 263 258 258 262 265 268 270 271 275 276 276 269 265 266 266 271 270 270 272 272 286 286 287 287 291 293 296 300 298 295
225 224 230 239 246 250 251 249 255 252 258 265 268 264 262 263 262 262 266 267 268 271 275 276 274 265 263 265 265 269 272 276 276 274 279 283 285 290 293 293 295 292 292
240 242 243 244 244 243 244 249 251 255 263 265 266 263 262 262 262 263 264 264 268 270 273 278 275 273 262 262 263 266 268 269 271 276 278 280 283 288 291 291 293 293 293
Wind_Speed_850mb
30 28 29 31 30 29 30 31 29 28 33 28 29 28 27 27 27 22 16 13 11 10 15 22 26 26 26 29 32 26 29 28 26 25 24 21 24 23 24 22 19 19 16
27 36 33 32 29 27 27 29 29 29 29 24 22 20 18 18 18 13 11 12 16 22 22 22 24 25 27 30 33 31 27 22 21 26 27 22 21 21 20 21 19 17 15
35 38 36 33 29 26 25 25 27 27 24 21 18 17 14 11 11 12 18 25 21 17 16 21 23 28 29 31 32 29 23 19 20 23 24 21 18 13 13 14 17 18 19
36 40 39 36 32 27 27 23 25 24 23 20 19 17 14 12 14 19 24 19 28 20 9 16 23 27 29 30 28 24 20 14 16 20 19 14 10 10 7 9 12 16 18
39 42 42 40 34 29 26 24 24 25 24 22 19 16 12 12 16 24 24 19 24 29 13 10 20 23 25 26 24 20 16 16 11 10 12 11 6 3 6 7 10 12 14
43 42 41 40 34 27 23 23 24 23 25 25 24 22 19 15 18 22 19 14 18 29 20 9 20 19 19 19 18 15 10 8 10 12 10 11 9 5 3 4 7 10 10
44 42 41 38 31 26 22 20 20 21 22 22 22 23 23 23 15 17 18 16 13 19 18 14 17 17 15 13 11 9 5 3 5 5 6 9 6 3 4 7 7 9 10
42 43 41 40 33 28 24 23 24 24 24 21 22 20 25 22 18 17 20 19 12 9 8 5 9 11 12 11 9 7 5 4 3 3 5 6 6 5 5 10 12 11 9
34 36 42 45 37 31 27 25 25 23 23 18 14 18 21 20 19 19 21 22 21 17 14 15 13 16 15 13 11 11 9 7 6 8 6 5 7 8 9 11 12 12 11
33 31 39 44 40 33 29 26 24 24 24 21 18 16 18 19 20 21 21 23 24 21 17 12 13 12 11 10 9 8 8 10 11 13 12 11 9 12 13 13 15 14 14
38 34 39 45 42 36 32 29 27 25 24 23 23 21 21 20 21 20 20 21 20 17 14 12 11 13 14 13 13 13 14 15 16 17 18 17 15 16 19 19 18 19 18
46 39 33 47 44 40 37 35 32 30 27 25 24 25 23 23 21 20 21 22 20 18 17 17 17 17 17 17 18 19 18 19 20 21 21 21 21 21 23 24 24 24 23
44 39 35 44 44 44 43 39 37 34 31 29 28 26 25 26 27 27 24 24 24 22 22 21 21 21 21 22 22 23 23 23 23 23 23 25 26 26 27 28 29 30 29
46 42 37 37 42 41 36 40 39 40 38 36 33 32 31 30 31 31 29 25 23 23 24 26 27 27 27 26 25 26 26 26 27 27 28 30 31 32 33 33 34 34 35
48 46 42 40 42 40 44 42 40 38 41 39 39 37 37 35 33 32 30 30 28 29 31 30 31 31 31 31 31 31 31 31 32 33 34 36 37 39 38 39 40 40 39
48 47 43 43 43 46 43 41 39 41 39 38 41 41 40 39 37 36 36 34 33 33 32 33 34 36 37 38 38 37 36 36 37 39 41 42 43 44 45 45 44 45 45
48 44 44 43 42 46 47 44 40 39 39 39 39 37 40 41 40 39 40 40 38 37 37 38 37 39 41 40 43 41 41 41 43 45 46 47 46 46 47 47 48 49 50
51 47 41 42 45 43 43 45 44 43 43 41 40 40 39 38 38 38 40 42 40 42 42 42 41 43 46 45 46 47 48 49 49 49 50 49 50 49 47 47 47 49 51
47 46 47 45 45 43 42 42 45 48 45 42 43 43 41 41 41 43 44 43 40 43 45 45 44 46 47 46 48 49 50 53 54 54 55 54 53 52 51 50 49 51 53
49 49 50 50 49 46 44 43 44 46 46 46 46 46 44 46 44 48 49 46 44 48 50 50 50 48 51 49 49 54 54 56 56 58 58 57 55 52 52 53 52 48 49
63 60 57 55 55 53 54 52 52 53 53 53 54 52 49 47 49 51 51 49 49 53 54 54 54 54 56 53 54 59 62 59 58 55 51 48 43 41 39 39 40 41 42
75 70 65 62 55 56 58 56 57 55 55 55 54 54 53 51 46 46 49 49 49 53 59 58 60 62 62 61 55 56 57 60 63 50 34 41 35 37 37 39 42 45 46
84 81 72 65 60 59 61 61 63 64 64 61 60 58 55 53 50 48 47 47 48 50 53 57 61 59 62 63 60 53 25 22 46 53 55 58 63 58 57 49 45 51 54
67 81 73 68 61 61 63 66 67 71 72 68 63 59 54 52 52 49 48 47 49 50 50 50 53 63 59 63 62 65 68 66 55 52 59 63 73 77 69 62 62 64 62
44 56 60 57 57 58 63 67 66 65 67 67 63 60 56 54 53 51 51 51 50 51 49 49 49 51 63 67 66 65 70 71 71 74 67 64 70 75 74 69 64 64 64
58 54 46 49 58 60 57 57 61 63 58 56 54 57 58 57 56 57 56 55 54 55 53 51 51 48 52 60 62 68 71 68 64 67 70 65 68 73 70 68 68 70 69
Wind_Direction_850mb
183 172 164 159 152 145 144 143 139 137 137 127 124 121 124 127 129 130 135 144 157 146 113 99 99 111 108 113 112 104 89 80 78 80 82 96 88 84 88 87 84 75 66
174 168 166 159 153 147 146 149 145 139 144 140 135 133 129 129 128 123 114 121 133 112 105 104 102 105 114 114 112 101 89 81 83 81 85 88 91 83 76 68 63 57 45
171 167 164 159 152 148 150 152 154 153 152 152 148 147 147 142 133 118 107 102 96 101 95 108 107 109 115 120 118 109 94 80 83 82 86 90 82 84 68 57 46 44 40
173 166 165 161 157 155 154 156 165 168 166 164 156 157 161 162 157 136 124 152 127 115 99 109 114 109 118 123 121 111 104 98 79 83 72 98 98 62 50 32 30 35 34
176 171 169 167 166 165 165 165 169 180 185 186 185 184 176 175 176 162 157 148 140 122 138 135 125 118 121 130 132 128 121 120 99 89 69 86 94 169 35 27 19 18 24
173 175 174 173 171 172 173 177 173 178 188 200 205 208 202 209 189 183 169 153 147 136 143 183 131 130 130 132 139 139 124 106 98 87 63 63 68 90 19 356 5 14 13
174 175 178 179 175 175 178 181 184 183 174 174 189 207 206 207 204 186 162 175 190 168 173 144 139 137 135 132 133 147 128 88 25 43 56 37 64 127 289 322 343 338 339
174 174 179 182 182 181 183 184 187 187 179 175 165 181 197 203 199 186 177 182 203 189 169 128 121 140 142 153 160 165 193 194 240 320 25 33 18 13 316 306 307 305 302
180 180 183 186 186 187 187 186 189 194 193 196 189 177 188 187 190 183 181 188 192 201 203 182 180 178 178 179 185 193 206 243 267 292 330 337 332 340 335 320 313 304 291
189 194 194 192 193 193 194 194 195 198 200 205 211 208 201 194 193 197 194 194 202 210 215 203 205 212 219 220 229 240 245 258 276 288 306 309 307 318 321 315 310 305 292
201 205 203 200 199 200 201 202 202 203 206 209 215 219 221 217 211 210 212 213 213 220 227 240 235 233 236 239 244 251 256 261 264 271 286 293 300 304 305 304 302 299 293
205 204 208 206 205 205 208 208 208 208 210 214 219 223 226 224 223 226 229 229 227 228 228 230 239 245 246 250 253 259 264 263 268 268 276 283 289 291 292 293 295 292 290
212 214 219 209 208 212 213 215 215 215 216 218 223 228 230 231 229 230 234 236 232 233 240 245 252 256 257 258 260 265 267 266 268 271 274 279 283 284 285 287 289 288 287
218 223 223 218 214 214 220 218 219 221 220 222 226 229 232 234 237 238 240 237 240 249 255 257 255 258 259 263 266 268 270 271 273 275 277 279 281 281 280 281 282 283 282
222 224 226 228 228 225 218 221 222 225 224 227 229 231 233 235 239 242 247 248 254 263 265 264 263 262 267 268 270 273 274 277 279 282 282 282 282 280 279 278 279 279 279
221 225 226 229 234 232 232 235 232 229 230 228 227 231 232 234 239 245 249 252 257 263 267 266 266 267 270 270 272 275 278 280 284 284 282 281 279 279 279 277 274 274 275
218 224 228 232 233 232 235 238 240 246 237 237 238 236 235 235 236 243 251 256 258 260 262 263 266 270 273 278 279 281 283 286 284 284 283 282 281 279 278 278 276 273 272
220 221 225 230 231 234 235 238 241 245 249 244 245 245 247 247 244 243 249 254 257 259 262 264 269 273 275 277 280 282 283 284 285 285 283 282 282 282 280 278 278 277 275
224 225 229 232 232 233 235 238 241 245 250 255 253 253 253 253 252 251 253 257 259 261 263 266 268 270 274 277 281 283 283 283 284 284 282 282 283 283 283 283 280 279 278
231 232 234 236 238 237 240 240 241 243 247 253 256 259 260 259 255 253 258 262 260 262 264 266 269 273 277 280 283 285 285 284 283 282 283 287 288 286 285 287 288 283 279
229 231 232 235 238 239 238 241 242 245 251 258 259 257 259 264 261 253 254 257 259 260 263 266 269 271 273 276 283 284 287 287 288 289 296 295 292 293 289 285 287 289 288
231 233 233 235 241 242 244 247 251 259 262 268 264 261 259 261 267 267 255 257 258 261 262 263 262 266 268 269 269 278 285 291 296 299 299 300 291 292 287 289 285 287 285
232 232 232 237 241 243 247 248 249 252 257 258 255 257 255 257 259 264 270 268 268 265 268 265 263 263 267 273 273 266 271 262 288 288 292 291 291 291 287 292 286 289 284
234 228 233 237 242 247 248 245 250 253 257 260 265 263 258 258 262 265 268 270 271 275 276 276 269 265 266 266 271 270 270 272 272 286 286 287 287 291 293 296 300 298 295
225 224 230 239 246 250 251 249 255 252 258 265 268 264 262 263 262 262 266 267 268 271 275 276 274 265 263 265 265 269 272 276 276 274 279 283 285 290 293 293 295 292 292
240 242 243 244 244 243 244 249 251 255 263 265 266 263 262 262 262 263 264 264 268 270 273 278 275 273 262 262 263 266 268 269 271 276 278 280 283 288 291 291 293 293 293